Waarnemingen

Advertentie
Mijn weer
Reims-Prunay, Frankrijk (7072): temperatuur & dauwpunt: 22.06.2017 05:00:00 - 28.06.2017 05:00:00 (CEST)Reims-Prunay, Frankrijk (7072): temperatuur 5cm: 22.06.2017 05:00:00 - 28.06.2017 05:00:00 (CEST)Reims-Prunay, Frankrijk (7072): temperatuur -20cm & temperatuur -100cm: 22.06.2017 05:00:00 - 28.06.2017 05:00:00 (CEST)Reims-Prunay, Frankrijk (7072): windsnelheid & windstoten: 22.06.2017 05:00:00 - 28.06.2017 05:00:00 (CEST)Reims-Prunay, Frankrijk (7072): windrichting: 22.06.2017 05:00:00 - 28.06.2017 05:00:00 (CEST)Reims-Prunay, Frankrijk (7072): luchtdruk: 22.06.2017 05:00:00 - 28.06.2017 05:00:00 (CEST)Reims-Prunay, Frankrijk (7072): zicht: 22.06.2017 05:00:00 - 28.06.2017 05:00:00 (CEST)Reims-Prunay, Frankrijk (7072): Zonneschijnduur: 22.06.2017 05:00:00 - 28.06.2017 05:00:00 (CEST)Reims-Prunay, Frankrijk (7072): neerslag: 22.06.2017 05:00:00 - 28.06.2017 05:00:00 (CEST)
Datum & Tijd tt [°C] td [°C] tt 5cm [°C] tt -20cm [°C] tt -100cm [°C] ff [km/u] ff [kn] fx [km/u] fx [kn] dd ppp [hPa] vv [km] sd [min] rr [mm]
28.06.2017 05:00:00 17,8 17,2 17,5 21,2 16,9 4 2 8 5 OZO 998,7 11 0 0,0
28.06.2017 04:00:00 17,9 16,9 17,6 21,4 16,9 5 3 9 5 ZZO 999,1 18 0 0,0
28.06.2017 03:00:00 17,9 16,8 17,2 21,5 16,8 5 3 13 7 O 999,5 20 0 0,0
28.06.2017 02:00:00 18,6 16,4 17,4 21,6 16,8 9 5 18 10 WZW 999,7 20 0 0,0
28.06.2017 01:00:00 19,1 17,1 17,8 21,7 16,8 9 5 17 9 ZW 1000,3 20 0 0,0
28.06.2017 00:00:00 19,0 18,2 18,0 21,8 16,8 6 3 8 4 O 1000,6 16 0 0,0
27.06.2017 23:00:00 19,8 18,3 18,7 21,9 16,8 0 0 15 8 N 1001,0 20 0 0,0
27.06.2017 22:00:00 20,6 18,2 19,2 21,9 16,8 6 3 13 7 ZZW 1001,1 20 0 0,0
27.06.2017 21:00:00 21,3 19,4 20,0 21,9 16,8 4 2 25 14 Z 1001,3 20 0 0,4
27.06.2017 20:00:00 23,2 20,2 23,4 21,8 16,8 6 3 11 6 ZO 1001,1 20 12 0,0
27.06.2017 19:00:00 24,7 20,0 23,7 21,7 16,8 5 3 8 4 Z 1001,3 20 30 0,0
27.06.2017 18:00:00 22,5 19,7 20,9 21,7 16,8 0 0 13 7 N 1002,6 18 0 0,0
27.06.2017 17:00:00 20,6 19,3 19,5 21,5 16,8 6 4 35 19 Z 1003,8 20 0 5,6
27.06.2017 16:00:00 24,8 17,0 25,7 21,2 16,8 7 4 18 10 Z 1003,9 20 0 0,0
27.06.2017 15:00:00 25,0 17,0 27,2 20,9 16,8 8 5 16 9 Z 1004,5 20 33 0,0
27.06.2017 14:00:00 24,6 18,1 27,0 20,6 16,8 5 3 14 7 ZO 1005,2 20 17 0,0
27.06.2017 13:00:00 23,7 18,6 27,4 20,4 16,8 4 2 12 7 Z 1006,0 20 9 0,0
27.06.2017 12:00:00 23,5 19,2 22,2 20,3 16,8 3 1 8 5 W 1006,6 20 30 0,0
27.06.2017 11:00:00 20,2 18,1 19,8 20,2 16,8 3 2 14 8 W 1007,3 20 0 0,0
27.06.2017 10:00:00 19,6 18,1 19,2 20,3 16,8 9 5 15 8 ONO 1007,4 18 5 0,0
27.06.2017 09:00:00 18,4 17,7 17,8 20,4 16,8 6 4 10 5 ONO 1007,8 14 0 0,6
27.06.2017 08:00:00 18,1 17,3 17,9 20,5 16,8 4 2 8 4 ONO 1008,1 14 0 0,0
27.06.2017 07:00:00 17,8 17,0 17,4 20,6 16,8 3 1 16 9 NO 1008,1 18 0 0,0
27.06.2017 06:00:00 17,8 16,8 17,2 20,7 16,8 7 4 14 7 NNO 1008,2 20 0 0,0
27.06.2017 05:00:00 17,9 16,9 17,3 20,8 16,8 6 3 16 9 NNO 1008,3 19 0 0,2
27.06.2017 04:00:00 17,9 16,9 17,0 21,0 16,8 10 6 20 11 NNO 1009,0 20 0 0,2
27.06.2017 03:00:00 17,8 17,2 17,2 21,1 16,8 2 1 6 4 NO 1009,6 9 0 0,6
27.06.2017 02:00:00 17,9 17,1 17,4 21,3 16,8 4 2 9 5 ZO 1010,5 8 0 2,9
27.06.2017 01:00:00 18,3 16,8 17,3 21,4 16,8 8 5 22 12 ZO 1011,4 3,9 0 4,4
27.06.2017 00:00:00 19,9 15,3 19,0 21,5 16,8 5 3 20 11 ZO 1010,7 20 0 0,0
26.06.2017 23:00:00 21,3 14,9 17,0 21,7 16,8 11 6 18 10 NNO 1010,0 20 0 0,0
26.06.2017 22:00:00 20,9 14,5 18,7 21,8 16,8 5 3 8 4 N 1010,2 20 0 0,0
26.06.2017 21:00:00 22,4 14,5 20,5 21,8 16,8 4 2 14 7 N 1009,8 20 0 0,0
26.06.2017 20:00:00 24,6 13,5 25,4 21,8 16,8 10 6 17 9 N 1009,9 20 24 0,0
26.06.2017 19:00:00 24,9 13,8 27,1 21,8 16,9 9 5 13 7 NNO 1010,6 20 0 0,0
26.06.2017 18:00:00 25,3 13,5 27,2 21,6 16,8 6 4 19 10 NNO 1011,2 20 0 0,0
26.06.2017 17:00:00 25,7 14,2 28,5 21,4 16,8 13 7 21 11 NNO 1011,2 20 0 0,0
26.06.2017 16:00:00 25,7 14,2 29,9 20,9 16,8 13 7 25 14 N 1011,4 20 28 0,0
26.06.2017 15:00:00 26,3 14,4 32,4 20,5 16,8 13 7 25 13 N 1011,6 20 60 0,0
26.06.2017 14:00:00 25,6 14,1 31,5 20,1 16,8 8 4 23 12 NW 1012,7 20 60 0,0
26.06.2017 13:00:00 24,7 14,2 31,1 19,8 16,8 10 5 19 10 NW 1013,1 18 60 0,0
26.06.2017 12:00:00 23,3 14,3 28,5 19,5 16,8 9 5 20 11 ONO 1013,3 2,6 60 0,0
26.06.2017 11:00:00 22,5 14,6 27,6 19,3 16,8 4 2 12 7 NNO 1013,9 19 60 0,0
26.06.2017 10:00:00 20,9 14,1 24,7 19,3 16,8 5 3 11 6 ONO 1014,0 20 60 0,0
26.06.2017 09:00:00 19,4 14,4 22,0 19,3 16,8 4 2 9 5 NO 1014,2 20 60 0,0
26.06.2017 08:00:00 17,2 14,5 18,2 19,5 16,8 3 2 6 3 ZZO 1014,8 20 60 0,0
26.06.2017 07:00:00 13,3 11,9 9,7 19,7 16,8 2 1 4 2 NW 1014,8 20 52 0,0
26.06.2017 06:00:00 10,3 9,4 8,4 19,8 16,8 0 0 4 2 N 1014,8 20 0 0,0
26.06.2017 05:00:00 12,3 11,5 10,0 20,0 16,8 4 2 6 4 N 1014,5 20 0 0,0
26.06.2017 04:00:00 11,4 10,3 10,1 20,2 16,8 4 2 9 5 NNW 1014,9 20 0 0,0
26.06.2017 03:00:00 12,3 11,2 10,2 20,4 16,8 4 2 9 5 N 1015,0 20 0 0,0
26.06.2017 02:00:00 17,2 13,7 11,2 20,5 16,8 7 4 10 6 W 1015,3 20 0 0,0
26.06.2017 01:00:00 15,9 12,6 11,7 20,7 16,8 2 1 11 6 NW 1015,4 20 0 0,0
26.06.2017 00:00:00 17,3 13,4 11,5 20,7 16,8 2 1 5 3 NNW 1015,2 20 0 0,0
25.06.2017 23:00:00 18,0 13,9 16,4 20,8 16,8 5 3 9 5 N 1014,7 20 0 0,0
25.06.2017 22:00:00 22,4 13,2 18,4 20,9 16,8 3 1 11 6 NW 1014,1 19 7 0,0
25.06.2017 21:00:00 24,2 13,4 23,7 20,8 16,8 7 4 23 13 W 1013,9 20 18 0,0
25.06.2017 20:00:00 24,9 13,1 24,9 20,8 16,8 11 6 31 17 W 1013,9 20 14 0,0
25.06.2017 19:00:00 24,9 13,1 25,2 20,7 16,8 16 9 27 15 W 1013,9 20 14 0,0
25.06.2017 18:00:00 24,9 12,8 26,3 20,5 16,8 14 8 29 15 W 1014,2 20 10 0,0
25.06.2017 17:00:00 25,9 13,4 26,3 20,2 16,8 21 12 35 19 W 1014,7 20 24 0,0
25.06.2017 16:00:00 25,3 13,2 26,8 20,0 16,8 15 8 38 20 W 1015,0 20 32 0,0
25.06.2017 15:00:00 25,1 12,7 26,5 19,9 16,8 16 9 32 17 W 1015,1 20 7 0,0
25.06.2017 14:00:00 23,8 12,1 23,7 19,7 16,8 16 9 33 18 W 1015,5 20 15 0,0
25.06.2017 13:00:00 23,5 13,7 21,3 19,6 16,8 18 10 39 21 ZW 1015,4 20 30 0,0
25.06.2017 12:00:00 21,8 14,2 21,7 19,5 16,8 19 10 32 17 W 1015,7 20 11 0,0
25.06.2017 11:00:00 20,0 14,6 21,0 19,5 16,8 15 8 29 16 W 1015,7 20 1 0,0
25.06.2017 10:00:00 19,1 15,6 17,5 19,6 16,8 13 7 24 13 ZW 1015,5 20 1 0,0
25.06.2017 09:00:00 18,2 15,3 16,9 19,6 16,8 12 7 20 11 W 1015,4 13 0 0,0
25.06.2017 08:00:00 15,4 13,4 14,2 19,7 16,8 4 2 7 4 OZO 1015,5 20 0 0,0
25.06.2017 07:00:00 13,4 12,0 11,8 19,9 16,8 5 3 8 4 O 1015,5 20 0 0,0
25.06.2017 06:00:00 11,4 10,8 9,3 20,1 16,7 4 2 6 3 O 1015,4 20 0 0,0
25.06.2017 05:00:00 10,5 9,3 8,5 20,3 16,7 4 2 6 3 N 1015,6 20 0 0,0
25.06.2017 04:00:00 12,4 10,6 8,0 20,5 16,7 0 0 11 6 N 1015,7 20 0 0,0
25.06.2017 03:00:00 10,9 9,5 8,5 20,7 16,7 0 0 8 4 N 1015,2 20 0 0,0
25.06.2017 02:00:00 13,5 10,8 11,3 20,9 16,7 5 3 13 7 WNW 1015,4 20 0 0,0
25.06.2017 01:00:00 14,4 11,2 12,3 21,1 16,8 6 3 13 7 NNW 1015,6 20 0 0,0
25.06.2017 00:00:00 13,9 10,7 12,0 21,3 16,7 4 2 9 5 N 1015,9 20 0 0,0
24.06.2017 23:00:00 14,2 10,8 12,4 21,4 16,7 5 3 7 4 N 1016,0 20 0 0,0
24.06.2017 22:00:00 19,5 11,3 14,9 21,5 16,7 6 3 14 7 ZW 1015,6 20 23 0,0
24.06.2017 21:00:00 22,1 11,5 22,7 21,5 16,7 13 7 28 15 WZW 1015,7 20 60 0,0
24.06.2017 20:00:00 23,3 12,0 23,1 21,5 16,7 13 7 30 16 WZW 1016,1 20 43 0,0
24.06.2017 19:00:00 23,9 11,9 23,9 21,3 16,7 19 11 30 16 WZW 1016,1 20 44 0,0
24.06.2017 18:00:00 23,9 11,6 25,2 21,2 16,7 23 12 34 18 WZW 1016,5 20 34 0,0
24.06.2017 17:00:00 23,8 10,8 25,1 20,9 16,7 20 11 34 19 WZW 1017,0 20 27 0,0
24.06.2017 16:00:00 24,2 10,5 25,4 20,8 16,6 13 7 33 18 WZW 1017,4 20 39 0,0
24.06.2017 15:00:00 23,3 11,0 25,3 20,6 16,6 16 9 32 17 W 1018,0 20 21 0,0
24.06.2017 14:00:00 22,5 10,6 23,4 20,4 16,6 19 11 34 19 W 1018,4 20 20 0,0
24.06.2017 13:00:00 22,6 11,3 23,4 20,2 16,6 19 11 35 19 W 1018,7 20 17 0,0
24.06.2017 12:00:00 21,8 11,8 22,3 20,2 16,7 19 10 35 19 WZW 1019,1 20 30 0,0
24.06.2017 11:00:00 20,5 11,9 21,7 20,1 16,7 18 10 35 19 W 1019,3 20 21 0,0
24.06.2017 10:00:00 19,5 11,8 21,4 20,1 16,6 13 7 25 13 W 1019,7 20 58 0,0
24.06.2017 09:00:00 18,7 11,5 19,2 20,2 16,7 11 6 21 11 W 1019,9 20 52 0,0
24.06.2017 08:00:00 15,6 12,3 13,2 20,4 16,6 2 1 9 5 ZO 1020,0 20 15 0,0
24.06.2017 07:00:00 12,2 11,4 10,5 20,6 16,7 5 3 8 4 O 1020,4 13 0 0,0
24.06.2017 06:00:00 10,2 10,0 5,1 20,8 16,6 5 3 6 4 ONO 1020,3 6 0 0,0
24.06.2017 05:00:00 7,5 6,8 5,4 21,1 16,6 0 0 4 2 N 1020,4 8 0 0,0
24.06.2017 04:00:00 7,8 6,9 5,7 21,4 16,6 3 1 7 4 O 1020,3 8 0 0,0
24.06.2017 03:00:00 9,0 8,1 6,9 21,6 16,6 5 3 6 3 NNW 1020,2 9 0 0,0
24.06.2017 02:00:00 10,1 8,0 6,8 21,8 16,6 0 0 9 5 N 1020,4 13 0 0,0
24.06.2017 01:00:00 14,5 11,3 12,2 22,1 16,6 8 4 14 8 W 1020,4 18 0 0,0
24.06.2017 00:00:00 16,3 11,4 14,1 22,3 16,6 8 4 20 11 NW 1020,6 20 0 0,0
23.06.2017 23:00:00 17,3 11,8 16,1 22,5 16,6 13 7 29 16 NW 1020,6 20 0 0,0
23.06.2017 22:00:00 19,2 12,5 18,0 22,6 16,6 16 9 26 14 NW 1019,7 20 18 0,0
23.06.2017 21:00:00 22,3 12,3 22,6 22,6 16,5 12 7 26 14 WNW 1019,0 20 60 0,0
23.06.2017 20:00:00 23,5 11,5 25,4 22,6 16,5 14 8 29 16 W 1018,5 20 60 0,0
23.06.2017 19:00:00 24,0 11,7 26,9 22,4 16,5 16 9 29 15 W 1018,5 20 60 0,0
23.06.2017 18:00:00 24,6 12,2 28,6 22,3 16,6 14 8 31 17 WNW 1018,5 20 60 0,0
23.06.2017 17:00:00 24,1 12,1 28,5 22,1 16,5 18 10 31 17 WNW 1018,8 20 60 0,0
23.06.2017 16:00:00 23,8 12,7 27,9 21,8 16,5 17 9 35 19 WNW 1019,2 20 60 0,0
23.06.2017 15:00:00 23,7 13,0 27,0 21,5 16,5 15 8 36 20 NW 1019,4 19 50 0,0
23.06.2017 14:00:00 23,6 12,6 24,4 21,3 16,5 17 9 31 17 WNW 1019,3 20 53 0,0
23.06.2017 13:00:00 22,9 12,5 26,8 21,1 16,5 12 7 31 17 WZW 1019,2 20 58 0,0
23.06.2017 12:00:00 21,0 12,2 22,6 21,0 16,5 13 7 28 15 NW 1019,2 20 36 0,0
23.06.2017 11:00:00 19,7 12,0 20,5 21,0 16,5 16 9 26 14 W 1019,3 20 13 0,0
23.06.2017 10:00:00 18,3 12,5 19,3 21,2 16,5 12 6 20 11 WNW 1019,2 20 0 0,0
23.06.2017 09:00:00 17,6 12,9 16,9 21,3 16,5 13 7 29 15 W 1018,7 20 0 0,0
23.06.2017 08:00:00 16,5 12,6 16,4 21,5 16,5 16 9 26 14 W 1018,2 20 26 0,0
23.06.2017 07:00:00 15,6 12,5 13,9 21,7 16,4 8 4 13 7 W 1017,9 20 35 0,0
23.06.2017 06:00:00 14,8 12,1 9,8 21,9 16,4 6 3 14 8 W 1017,6 20 0 0,0
23.06.2017 05:00:00 13,8 11,7 10,4 22,2 16,4 0 0 12 6 N 1017,1 20 0 0,0
23.06.2017 04:00:00 16,1 12,3 14,4 22,5 16,4 7 4 16 8 W 1016,9 20 0 0,0
23.06.2017 03:00:00 16,9 12,6 13,0 22,7 16,4 6 4 20 11 W 1016,6 20 0 0,0
23.06.2017 02:00:00 15,9 12,8 14,6 22,9 16,4 6 3 18 10 N 1016,4 20 0 0,0
23.06.2017 01:00:00 17,3 12,8 16,2 23,1 16,4 9 5 18 10 NW 1016,1 20 0 0,0
23.06.2017 00:00:00 18,3 12,7 17,3 23,3 16,4 11 6 25 13 N 1015,7 20 0 0,0
22.06.2017 23:00:00 20,4 14,7 19,6 23,5 16,4 16 9 29 16 NNW 1015,1 20 0 0,0
22.06.2017 22:00:00 21,8 16,5 21,1 23,6 16,4 15 8 35 19 NNW 1014,1 20 0 0,0
22.06.2017 21:00:00 24,1 18,1 23,7 23,6 16,3 19 11 43 23 NNW 1013,2 20 8 0,0
22.06.2017 20:00:00 27,5 18,8 27,4 23,6 16,3 31 17 49 26 N 1011,7 19 44 0,0
22.06.2017 19:00:00 32,7 16,1 32,8 23,5 16,3 20 11 32 18 W 1010,7 20 49 0,0
22.06.2017 18:00:00 34,0 15,9 35,7 23,4 16,3 19 11 41 22 W 1010,6 19 54 0,0
22.06.2017 17:00:00 34,1 15,1 35,4 23,2 16,3 21 11 35 19 W 1010,9 20 49 0,0
22.06.2017 16:00:00 33,6 14,1 37,3 22,9 16,3 20 11 34 18 ZW 1011,2 20 58 0,0
22.06.2017 15:00:00 34,2 13,6 37,6 22,7 16,3 24 13 37 20 WZW 1011,7 20 60 0,0
22.06.2017 14:00:00 34,1 16,0 37,9 22,3 16,3 25 14 41 22 WZW 1011,9 20 60 0,0
22.06.2017 13:00:00 33,7 19,4 38,4 22,1 16,3 17 9 30 16 ZW 1011,9 20 60 0,0
22.06.2017 12:00:00 32,2 20,1 37,0 21,9 16,3 12 7 20 11 ZW 1012,4 20 60 0,0
22.06.2017 11:00:00 31,0 20,6 34,1 21,7 16,3 8 5 13 7 ZZW 1012,6 20 51 0,0
22.06.2017 10:00:00 29,3 21,3 28,7 21,7 16,3 4 2 13 7 OZO 1012,6 18 60 0,0
22.06.2017 09:00:00 26,3 19,9 26,1 21,8 16,3 8 4 13 7 OZO 1012,7 20 60 0,0
22.06.2017 08:00:00 23,8 18,9 22,2 21,9 16,2 10 5 13 7 O 1012,8 19 60 0,0
22.06.2017 07:00:00 21,0 18,0 19,6 22,1 16,2 11 6 18 10 O 1013,0 20 33 0,0
22.06.2017 06:00:00 20,5 17,1 19,5 22,2 16,2 13 7 18 10 O 1012,9 20 0 0,0
22.06.2017 05:00:00 20,5 17,1 19,1 22,4 16,2 12 7 28 15 O 1013,0 20 0 0,0

tt = temperatuur
td = dauwpunt
tt 5cm = temperatuur 5cm
tt -20cm = temperatuur -20cm
tt -100cm = temperatuur -100cm
ff = windsnelheid
fx = windstoten
dd = windrichting
ppp = luchtdruk
vv = zicht
sd = Zonneschijnduur
rr = neerslag

Weerstations in de omgeving